Weather History for Tahlequah, OK

Change the Weather History Date:

Friday, March 22, 2013

  Actual Average (KMKO) Record (KMKO)
Temperature  
Mean Temperature 38 °F -  
Max Temperature 42 °F 61 °F 79 °F (2009)
Min Temperature 33 °F 40 °F 21 °F (2002)
Degree Days  
Heating Degree Days 28    
Moisture  
Dew Point 36 °F    
Average Humidity 89    
Maximum Humidity 100    
Minimum Humidity 81    
Precipitation  
Precipitation 0.36 in - - ()
Sea Level Pressure  
Sea Level Pressure 29.87 in    
Wind  
Wind Speed 5 mph (NE)    
Max Wind Speed 14 mph    
Max Gust Speed 25 mph    
Visibility 9 miles    
Events Snow    
Averages and records for this station are not official NWS values.
T = Trace of Precipitation, MM = Missing Value Source: NWS Daily Summary

Daily Weather History Graph

Daily Weather History Graph

Search for Another Location

Airport:

Trip Planner

Search our weather history database for the weather conditions in past years. The results will help you decide how hot, cold, wet, or windy it might be!

Date:

Astronomy

Mar. 22, 2013 Rise Set
Actual Time 7:20 AM CDT 7:33 PM CDT
Civil Twilight 6:54 AM CDT 7:59 PM CDT
Nautical Twilight 6:24 AM CDT 8:29 PM CDT
Astronomical Twilight 5:54 AM CDT 8:59 PM CDT
Moon 3:09 PM CDT (3/22) 4:13 AM CDT (3/22)
Length of Visible Light 13h 04m
Length of Day
12h 13m
Waxing Gibbous, 77% of the Moon is Illuminated
Mar 22
Waxing Gibbous
Mar 27
Full
Apr 2
Last Quarter
Apr 10
New
Apr 18
First Quarter

Hourly Weather History & Observations

Time (CDT) Temp. Windchill Dew Point Humidity Pressure Visibility Wind Dir Wind Speed Gust Speed Precip Events Conditions
12:15 AM 35.6 °F 26.6 °F 33.8 °F 93% 29.80 in 10.0 mi ESE 13.8 mph - 0.01 in Snow Light Snow
12:35 AM 35.6 °F 28.0 °F 33.8 °F 93% 29.79 in 10.0 mi ESE 10.4 mph 25.3 mph 0.01 in   Overcast
12:55 AM 35.6 °F 32.8 °F 33.8 °F 93% 29.81 in 10.0 mi East 3.5 mph - 0.01 in   Overcast
1:15 AM 35.6 °F 29.9 °F 33.8 °F 93% 29.80 in 4.0 mi East 6.9 mph - 0.03 in Snow Light Snow
1:35 AM 35.6 °F 32.8 °F 33.8 °F 93% 29.82 in 7.0 mi East 3.5 mph - 0.05 in   Mostly Cloudy
1:55 AM 35.6 °F 31.7 °F 33.8 °F 93% 29.82 in 10.0 mi East 4.6 mph - 0.06 in   Overcast
2:15 AM 35.6 °F 31.7 °F 33.8 °F 93% 29.82 in 10.0 mi East 4.6 mph - N/A   Overcast
2:35 AM 35.6 °F 30.7 °F 33.8 °F 93% 29.81 in 10.0 mi East 5.8 mph - N/A   Overcast
2:55 AM 35.6 °F 32.8 °F 33.8 °F 93% 29.82 in 10.0 mi ENE 3.5 mph - N/A   Overcast
3:15 AM 35.6 °F 31.7 °F 33.8 °F 93% 29.82 in 10.0 mi ENE 4.6 mph - N/A   Overcast
3:35 AM 35.6 °F 32.8 °F 33.8 °F 93% 29.82 in 10.0 mi ENE 3.5 mph - N/A   Overcast
3:55 AM 35.6 °F 29.9 °F 33.8 °F 93% 29.82 in 7.0 mi NE 6.9 mph - 0.01 in Snow Light Snow
4:15 AM 35.6 °F 28.0 °F 33.8 °F 93% 29.81 in 7.0 mi East 10.4 mph - 0.01 in Snow Light Snow
4:35 AM 35.6 °F 29.9 °F 33.8 °F 93% 29.82 in 1.8 mi ENE 6.9 mph - 0.12 in Snow Light Snow
4:55 AM 33.8 °F 27.0 °F 33.8 °F 100% 29.82 in 3.0 mi East 8.1 mph - 0.17 in Snow Light Snow
5:15 AM 33.8 °F 27.0 °F 33.8 °F 100% 29.83 in 7.0 mi ESE 8.1 mph - 0.01 in Snow Light Snow
5:35 AM 33.8 °F 28.6 °F 33.8 °F 100% 29.83 in 4.0 mi East 5.8 mph - 0.04 in Snow Light Snow
5:55 AM 35.6 °F 31.7 °F 33.8 °F 93% 29.86 in 3.0 mi North 4.6 mph - 0.09 in Snow Light Snow
6:15 AM 35.6 °F 31.7 °F 33.8 °F 93% 29.87 in 7.0 mi NNW 4.6 mph - 0.02 in   Overcast
6:55 AM 35.6 °F - 33.8 °F 93% 29.86 in 10.0 mi Calm Calm - 0.02 in   Overcast
7:15 AM 35.6 °F - 33.8 °F 93% 29.88 in 10.0 mi Calm Calm - N/A   Overcast
7:35 AM 35.6 °F - 33.8 °F 93% 29.88 in 10.0 mi Calm Calm - N/A   Overcast
7:55 AM 35.6 °F - 35.6 °F 100% 29.87 in 10.0 mi Calm Calm - N/A   Overcast
8:15 AM 35.6 °F - 35.6 °F 100% 29.89 in 10.0 mi Calm Calm - N/A   Overcast
8:35 AM 35.6 °F - 35.6 °F 100% 29.89 in 10.0 mi Calm Calm - N/A   Overcast
8:55 AM 35.6 °F - 35.6 °F 100% 29.89 in 10.0 mi Calm Calm - N/A   Overcast
9:15 AM 37.4 °F 34.9 °F 35.6 °F 93% 29.89 in 10.0 mi NE 3.5 mph - N/A   Overcast
9:35 AM 37.4 °F - 35.6 °F 93% 29.89 in 10.0 mi Calm Calm - N/A   Overcast
9:55 AM 37.4 °F - 35.6 °F 93% 29.89 in 10.0 mi Calm Calm - N/A   Overcast
10:15 AM 37.4 °F - 35.6 °F 93% 29.90 in 10.0 mi Calm Calm - N/A   Overcast
10:35 AM 37.4 °F - 35.6 °F 93% 29.90 in 10.0 mi Calm Calm - N/A   Overcast
10:55 AM 39.2 °F - 37.4 °F 93% 29.89 in 10.0 mi Calm Calm - N/A   Overcast
11:15 AM 41.0 °F 39.0 °F 37.4 °F 87% 29.89 in 10.0 mi East 3.5 mph - N/A   Overcast
11:35 AM 41.0 °F 39.0 °F 37.4 °F 87% 29.88 in 10.0 mi ESE 3.5 mph - N/A   Overcast
11:55 AM 41.0 °F - 37.4 °F 87% 29.88 in 10.0 mi Calm Calm - N/A   Overcast
12:15 PM 41.0 °F - 37.4 °F 87% 29.89 in 10.0 mi Calm Calm - N/A   Overcast
12:35 PM 42.8 °F - 37.4 °F 81% 29.89 in 10.0 mi Calm Calm - N/A   Overcast
12:55 PM 42.8 °F - 37.4 °F 81% 29.90 in 10.0 mi Calm Calm - N/A   Overcast
1:15 PM 42.8 °F 41.1 °F 37.4 °F 81% 29.90 in 10.0 mi NW 3.5 mph - N/A   Overcast
1:35 PM 42.8 °F 40.1 °F 37.4 °F 81% 29.90 in 10.0 mi NNW 4.6 mph - N/A   Overcast
1:55 PM 42.8 °F - 37.4 °F 81% 29.89 in 10.0 mi Calm Calm - N/A   Overcast
2:15 PM 42.8 °F 41.1 °F 37.4 °F 81% 29.89 in 10.0 mi NNW 3.5 mph - N/A   Overcast
2:35 PM 42.8 °F - 37.4 °F 81% 29.88 in 10.0 mi Calm Calm - N/A   Overcast
2:55 PM 42.8 °F 39.3 °F 37.4 °F 81% 29.87 in 10.0 mi North 5.8 mph - N/A   Overcast
3:15 PM 42.8 °F 39.3 °F 37.4 °F 81% 29.87 in 10.0 mi NNW 5.8 mph - N/A   Overcast
3:35 PM 42.8 °F 38.6 °F 37.4 °F 81% 29.87 in 10.0 mi NNW 6.9 mph - N/A   Overcast
3:55 PM 42.8 °F 38.0 °F 39.2 °F 87% 29.86 in 10.0 mi North 8.1 mph - N/A   Overcast
4:15 PM 42.8 °F 38.0 °F 37.4 °F 81% 29.86 in 10.0 mi North 8.1 mph - N/A   Overcast
4:55 PM 42.8 °F 41.1 °F 39.2 °F 87% 29.87 in 10.0 mi NNE 3.5 mph - N/A   Overcast
5:15 PM 42.8 °F 40.1 °F 37.4 °F 81% 29.88 in 10.0 mi NNE 4.6 mph - N/A   Overcast
5:35 PM 42.8 °F 41.1 °F 37.4 °F 81% 29.89 in 10.0 mi North 3.5 mph - N/A   Overcast
5:55 PM 42.8 °F - 37.4 °F 81% 29.89 in 10.0 mi Calm Calm - N/A   Overcast
6:15 PM 42.8 °F - 37.4 °F 81% 29.89 in 10.0 mi Calm Calm - N/A   Overcast
6:35 PM 42.8 °F 39.3 °F 39.2 °F 87% 29.89 in 10.0 mi NE 5.8 mph - N/A   Overcast
6:55 PM 42.8 °F 41.1 °F 39.2 °F 87% 29.87 in 10.0 mi NE 3.5 mph - N/A   Overcast
7:15 PM 42.8 °F 39.3 °F 39.2 °F 87% 29.87 in 10.0 mi NE 5.8 mph - N/A   Overcast
7:35 PM 42.8 °F 39.3 °F 37.4 °F 81% 29.86 in 10.0 mi NE 5.8 mph - N/A   Overcast
7:55 PM 41.0 °F 37.1 °F 37.4 °F 87% 29.85 in 10.0 mi ENE 5.8 mph - N/A   Overcast
8:15 PM 41.0 °F 39.0 °F 37.4 °F 87% 29.87 in 10.0 mi NE 3.5 mph - N/A   Overcast
8:35 PM 41.0 °F - 37.4 °F 87% 29.89 in 10.0 mi Calm Calm - N/A   Overcast
8:55 PM 41.0 °F 39.0 °F 37.4 °F 87% 29.89 in 10.0 mi NNE 3.5 mph - N/A   Overcast
9:15 PM 41.0 °F 37.1 °F 37.4 °F 87% 29.89 in 10.0 mi NE 5.8 mph - N/A   Overcast
9:35 PM 41.0 °F - 37.4 °F 87% 29.92 in 10.0 mi Calm Calm - N/A   Overcast
9:55 PM 41.0 °F 38.0 °F 37.4 °F 87% 29.92 in 10.0 mi NE 4.6 mph - N/A   Overcast
10:15 PM 41.0 °F - 37.4 °F 87% 29.92 in 10.0 mi Calm Calm - N/A   Overcast
10:35 PM 41.0 °F 38.0 °F 37.4 °F 87% 29.91 in 10.0 mi East 4.6 mph - N/A   Overcast
10:55 PM 41.0 °F 39.0 °F 37.4 °F 87% 29.91 in 10.0 mi ENE 3.5 mph - N/A   Overcast
11:15 PM 41.0 °F 37.1 °F 37.4 °F 87% 29.89 in 10.0 mi ENE 5.8 mph - N/A   Mostly Cloudy
11:35 PM 39.2 °F - 37.4 °F 93% 29.90 in 10.0 mi Calm Calm - N/A   Mostly Cloudy
11:55 PM 39.2 °F - 37.4 °F 93% 29.91 in 10.0 mi Calm Calm - N/A   Overcast